Watsonville, CA

6:10 AM PDT on September 23, 2017 (GMT -0700)
Watsonville Municipal

Weather History for KWVI - September, 2014

Change the Weather History Date:

Friday, September 26, 2014

  Actual Average Record
Temperature  
Mean Temperature 67 °F 63 °F  
Max Temperature 77 °F 74 °F 101 °F (2016)
Min Temperature 57 °F 51 °F 45 °F (2004)
Degree Days  
Heating Degree Days 0    
Month to date heating degree days 7  
Since 1 July heating degree days 22  
Cooling Degree Days 2    
Month to date cooling degree days 63  
Year to date cooling degree days 263  
Growing Degree Days 16 (Base 50)    
Moisture  
Dew Point 56 °F    
Average Humidity 70    
Maximum Humidity 93    
Minimum Humidity 46    
Precipitation  
Precipitation 0.00 in - 0.49 in (1982)
Month to date precipitation 0.41  
Year to date precipitation 8.65  
Since 1 July precipitation 0.47  
Sea Level Pressure  
Sea Level Pressure 29.97 in    
Wind  
Wind Speed 6 mph (West)    
Max Wind Speed 18 mph    
Max Gust Speed 23 mph    
Visibility 10 miles    
Events Rain    
T = Trace of Precipitation, MM = Missing Value Source: NWS Daily Summary

Daily Weather History Graph

Daily Weather History Graph

Search for Another Location

Airport or City:

Trip Planner

Search our weather history database for the weather conditions in past years. The results will help you decide how hot, cold, wet, or windy it might be!

Date:

Astronomy

Sep. 26, 2014 Rise Set
Actual Time 6:58 AM PDT 6:57 PM PDT
Civil Twilight 6:32 AM PDT 7:23 PM PDT
Nautical Twilight 6:02 AM PDT 7:53 PM PDT
Astronomical Twilight 5:31 AM PDT 8:24 PM PDT
Moon 9:15 AM PDT (9/26) 8:25 PM PDT (9/26)
Length of Visible Light 12h 51m
Length of Day
11h 59m
Waxing Crescent, 6% of the Moon is Illuminated
Sep 26
Waxing Crescent
Oct 1
First Quarter
Oct 8
Full
Oct 15
Last Quarter
Oct 23
New

Hourly Weather History & Observations

Time (PDT) Temp. Dew Point Humidity Pressure Visibility Wind Dir Wind Speed Gust Speed Precip Events Conditions
12:44 AM 64.0 °F 59.0 °F 84% 30.01 in 10.0 mi Calm Calm - N/A   Overcast
12:53 AM 64.0 °F 59.0 °F 84% 30.01 in 10.0 mi NNW 3.5 mph - N/A   Overcast
1:27 AM 66.9 °F 64.0 °F 90% 29.93 in 2.0 mi SSW 5.8 mph - 0.00 in Rain Light Rain
1:53 AM 63.0 °F 57.9 °F 84% 30.00 in 10.0 mi NNE 3.5 mph - N/A   Overcast
2:20 AM 63.0 °F 57.9 °F 84% 30.00 in 10.0 mi Calm Calm - N/A   Overcast
2:53 AM 62.1 °F 57.9 °F 86% 29.99 in 10.0 mi NW 3.5 mph - N/A   Overcast
3:53 AM 60.1 °F 55.9 °F 86% 29.99 in 10.0 mi NW 4.6 mph - N/A   Overcast
4:53 AM 60.1 °F 55.9 °F 86% 29.98 in 10.0 mi NW 3.5 mph - N/A   Overcast
5:53 AM 59.0 °F 55.0 °F 87% 29.98 in 10.0 mi Calm Calm - N/A   Overcast
6:08 AM 59.0 °F 55.0 °F 87% 29.98 in 10.0 mi NW 5.8 mph - N/A   Overcast
6:29 AM 57.9 °F 55.0 °F 90% 29.98 in 10.0 mi WNW 4.6 mph - N/A   Overcast
6:53 AM 57.9 °F 55.0 °F 90% 29.99 in 10.0 mi NW 4.6 mph - N/A   Overcast
7:22 AM 57.0 °F 54.0 °F 89% 29.99 in 10.0 mi WNW 4.6 mph - N/A   Mostly Cloudy
7:38 AM 57.9 °F 54.0 °F 87% 30.00 in 10.0 mi Calm Calm - N/A   Overcast
7:53 AM 59.0 °F 54.0 °F 83% 30.01 in 10.0 mi WNW 3.5 mph - N/A   Mostly Cloudy
8:04 AM 60.1 °F 55.0 °F 83% 30.01 in 10.0 mi Calm Calm - N/A   Scattered Clouds
8:53 AM 64.0 °F 57.0 °F 78% 30.01 in 10.0 mi Calm Calm - N/A   Partly Cloudy
9:53 AM 66.0 °F 59.0 °F 78% 30.01 in 10.0 mi SE 5.8 mph - N/A   Partly Cloudy
10:16 AM 68.0 °F 59.0 °F 73% 30.01 in 10.0 mi South 5.8 mph - N/A   Mostly Cloudy
10:36 AM 69.1 °F 57.9 °F 68% 30.00 in 10.0 mi SSW 5.8 mph - N/A   Scattered Clouds
10:53 AM 70.0 °F 57.9 °F 65% 30.00 in 10.0 mi SSE 5.8 mph - N/A   Clear
11:18 AM 71.1 °F 57.0 °F 61% 30.00 in 10.0 mi SE 6.9 mph - N/A   Mostly Cloudy
11:53 AM 72.0 °F 55.9 °F 57% 29.99 in 10.0 mi SSW 9.2 mph - N/A   Scattered Clouds
12:53 PM 72.0 °F 57.0 °F 59% 29.98 in 10.0 mi SW 11.5 mph - N/A   Clear
1:53 PM 73.0 °F 55.9 °F 55% 29.96 in 10.0 mi SW 13.8 mph - N/A   Clear
2:53 PM 73.9 °F 57.0 °F 55% 29.94 in 10.0 mi WSW 13.8 mph 21.9 mph N/A   Clear
3:53 PM 75.0 °F 57.0 °F 53% 29.93 in 10.0 mi WSW 10.4 mph - N/A   Mostly Cloudy
4:53 PM 73.0 °F 51.1 °F 46% 29.91 in 10.0 mi NNW 8.1 mph - N/A   Clear
5:53 PM 72.0 °F 51.1 °F 48% 29.90 in 10.0 mi SW 6.9 mph - N/A   Clear
6:53 PM 69.1 °F 51.1 °F 53% 29.92 in 10.0 mi West 9.2 mph - N/A   Partly Cloudy
7:53 PM 66.0 °F 52.0 °F 60% 29.94 in 10.0 mi West 6.9 mph - N/A   Partly Cloudy
8:53 PM 63.0 °F 52.0 °F 67% 29.94 in 10.0 mi WSW 6.9 mph - N/A   Clear
9:53 PM 61.0 °F 54.0 °F 78% 29.94 in 10.0 mi North 4.6 mph - N/A   Clear
10:53 PM 59.0 °F 52.0 °F 78% 29.94 in 10.0 mi NNW 3.5 mph - N/A   Clear
11:53 PM 57.0 °F 51.1 °F 81% 29.95 in 10.0 mi WNW 4.6 mph - N/A   Clear